This is the latest recevied weather packets stored in our database for station/object SQ4IXR-4. If no packets are shown the sender has not sent any weather packets the latest 10 day(s).
| Time | Temp. | Humidity | Pressure | Rain* | Wind** | Luminosity | Snow |
|---|---|---|---|---|---|---|---|
| 1787959578 | 17.22° C | 61% | 1021.5 hPa | - | - | - | - |
| 1787958754 | 16.67° C | 62% | 1021.6 hPa | - | - | - | - |
| 1787957930 | 16.67° C | 64% | 1021.7 hPa | - | - | - | - |
| 1787957106 | 16.67° C | 64% | 1021.9 hPa | - | - | - | - |
| 1787956283 | 16.67° C | 65% | 1022.3 hPa | - | - | - | - |
| 1787955459 | 16.67° C | 65% | 1022.6 hPa | - | - | - | - |
| 1787954637 | 16.67° C | 63% | 1022.8 hPa | - | - | - | - |
| 1787953819 | 17.22° C | 62% | 1023 hPa | - | - | - | - |
| 1787952990 | 17.22° C | 62% | 1022.9 hPa | - | - | - | - |
| 1787952167 | 17.22° C | 62% | 1023.1 hPa | - | - | - | - |
| 1787951343 | 17.22° C | 62% | 1023 hPa | - | - | - | - |
| 1787950519 | 17.22° C | 61% | 1022.8 hPa | - | - | - | - |
| 1787949696 | 17.22° C | 61% | 1023 hPa | - | - | - | - |
| 1787948872 | 17.22° C | 61% | 1023.2 hPa | - | - | - | - |
| 1787948049 | 17.22° C | 61% | 1023.1 hPa | - | - | - | - |
| 1787947226 | 17.22° C | 61% | 1023.1 hPa | - | - | - | - |
| 1787946403 | 17.78° C | 60% | 1023.4 hPa | - | - | - | - |
| 1787945580 | 17.78° C | 61% | 1023.3 hPa | - | - | - | - |
| 1787944756 | 17.78° C | 62% | 1023.2 hPa | - | - | - | - |
| 1787943932 | 17.78° C | 62% | 1023.1 hPa | - | - | - | - |
| 1787943110 | 18.33° C | 60% | 1023.2 hPa | - | - | - | - |
| 1787942288 | 18.33° C | 56% | 1023.4 hPa | - | - | - | - |
| 1787941464 | 18.89° C | 54% | 1023.4 hPa | - | - | - | - |
| 1787940640 | 19.44° C | 51% | 1023.4 hPa | - | - | - | - |
| 1787939818 | 19.44° C | 50% | 1023.5 hPa | - | - | - | - |
* Rain since midnight (hover to see other rain measurements)
** Current wind speed in m/s (hover to see current wind gust speed)